Home > Weather > Oxford > Past weeks

Flag for United Kingdom Weather for the Past 2 Weeks in Oxford, England, United Kingdom

Now
39 °F

Partly cloudy.


Feels Like: 35 °F
Forecast: 37 / 43 °F
Wind: 6 mph from Southwest

Location: Benson

Current Time: Feb 9, 2016 at 6:55:38 AM

Latest Report: Feb 9, 2016 at 5:50 AM


Visibility: N/A

Pressure: 29.21 "Hg

Humidity: 81%

Dew point: 34 °F

Location of OxfordLocation

Historic Weather in Oxford — Graph

°F

Oxford Temperature Yesterday

Maximum temperature yesterday: 48 °F (at 3:50 PM)
Minimum temperature yesterday: 41 °F (at 6:50 AM)
Average temperature yesterday: 45 °F

High & Low Weather Summary for the Past Weeks

 TemperatureHumidityPressure
High55 °F (Jan 25, 2:50 PM)100% (Jan 31, 10:50 AM)30.36 "Hg (Jan 31, 10:50 AM)
Low32 °F (Jan 28, 4:50 AM)46% (Feb 2, 1:50 PM)29.00 "Hg (Feb 8, 6:50 AM)
Average47 °F80%29.84 "Hg
* Reported Jan 25 4:50 AM — Feb 9 4:50 AM, Oxford, Weather by CustomWeather, © 2016

Note: Actual official high and low records may vary slightly from our data, if they occured in-between our weather recording intervals... More about our weather records

Advertising

Oxford Weather History for the Previous 24 Hours

 ConditionsComfort  
Time TempWeatherWind HumidityBarometerVisibility
4:50 AM
Tue, Feb 9
37 °FPassing clouds.8 mph87%29.24 "HgN/A
3:50 AM39 °FClear.10 mph75%29.27 "Hg10 mi
2:50 AM39 °FClear.12 mph81%29.30 "Hg10 mi
1:50 AM39 °FPassing clouds.13 mph87%29.33 "HgN/A
12:50 AM41 °FPassing clouds.12 mph76%29.36 "HgN/A
11:50 PM
Mon, Feb 8
41 °FPassing clouds.16 mph76%29.36 "HgN/A
10:50 PM41 °FPassing clouds.17 mph76%29.36 "HgN/A
9:50 PM41 °FPassing clouds.14 mph76%29.36 "HgN/A
8:50 PM45 °FPassing clouds.18 mph66%29.33 "HgN/A
7:50 PM45 °FPassing clouds.20 mph71%29.33 "HgN/A
6:50 PM46 °FPassing clouds.24 mph66%29.30 "HgN/A
5:50 PM46 °FPartly cloudy.28 mph71%29.24 "HgN/A
4:50 PM46 °FBroken clouds.24 mph82%29.21 "HgN/A
3:50 PM48 °FBroken clouds.26 mph71%29.15 "HgN/A
2:50 PM46 °FRain showers. Partly sunny.29 mph76%29.09 "HgN/A
1:50 PM46 °FMostly cloudy.30 mph76%29.06 "HgN/A
12:50 PM46 °FSprinkles. Broken clouds.28 mph82%29.03 "HgN/A
11:50 AM46 °FPartly sunny.30 mph71%29.03 "HgN/A
10:50 AM46 °FBroken clouds.24 mph76%29.03 "HgN/A
9:50 AM45 °FPartly sunny.22 mph76%29.00 "HgN/A
8:50 AM45 °FBroken clouds.24 mph71%29.03 "HgN/A
7:50 AM43 °FScattered clouds.22 mph76%29.00 "HgN/A
6:50 AM41 °FPassing clouds.17 mph87%29.00 "HgN/A
Weather by CustomWeather, © 2016

See weather overviewHow to use our weather pages